LN1076K KFLY-KAEJ

Flight info

Callsign LN1076K
Flight time 0h 38m
Altitude 16000
Route BRK V108 MURFE V160 LOZUL KAEJ
Aircraft BE9L/L-VGD/C

Departure

Time 2026-05-06 17:37
Airport Meadow Lake Airport (KFLY)

Arrival

Time 2026-05-06 18:15
Airport Central Colorado Regional Airport (KAEJ)
Time Latitude Longitude Altitude Speed Heading
2026-05-06 17:21 38.95189 -104.57288 6851 ft 0 kts 339°
2026-05-06 17:35 38.95196 -104.57304 6852 ft 6 kts 253°
2026-05-06 17:36 38.95169 -104.57365 6856 ft 5 kts 254°
2026-05-06 17:36 38.95184 -104.57385 6857 ft 1 kts 247°
2026-05-06 17:36 38.95138 -104.57368 6854 ft 15 kts 161°
2026-05-06 17:36 38.94741 -104.57186 6834 ft 100 kts 159°
2026-05-06 17:37 38.93935 -104.56809 6901 ft 138 kts 159°
2026-05-06 17:37 38.92972 -104.56493 7248 ft 147 kts 168°
2026-05-06 17:37 38.92064 -104.56305 7953 ft 124 kts 169°
2026-05-06 17:37 38.91120 -104.56094 8105 ft 151 kts 169°
2026-05-06 17:38 38.90049 -104.55621 8182 ft 171 kts 138°
2026-05-06 17:38 38.89453 -104.54327 8420 ft 174 kts 95°
2026-05-06 17:38 38.89715 -104.52852 8645 ft 175 kts 51°
2026-05-06 17:38 38.90733 -104.52040 8870 ft 176 kts
2026-05-06 17:39 38.91886 -104.52407 9087 ft 180 kts 323°
2026-05-06 17:39 38.92529 -104.53793 9313 ft 188 kts 284°
2026-05-06 17:39 38.92757 -104.55464 9590 ft 188 kts 284°
2026-05-06 17:39 38.93041 -104.57069 10017 ft 180 kts 287°
2026-05-06 17:40 38.93356 -104.58581 10453 ft 174 kts 288°
2026-05-06 17:40 38.93681 -104.60036 10891 ft 168 kts 289°
2026-05-06 17:40 38.94002 -104.61446 11386 ft 159 kts 289°
2026-05-06 17:40 38.94300 -104.62746 11913 ft 147 kts 289°
2026-05-06 17:41 38.94572 -104.63934 12430 ft 134 kts 290°
2026-05-06 17:41 38.94816 -104.65010 12951 ft 118 kts 290°
2026-05-06 17:41 38.95023 -104.65934 13455 ft 99 kts 291°
2026-05-06 17:41 38.95193 -104.66698 13804 ft 90 kts 291°
2026-05-06 17:42 38.95380 -104.67492 13968 ft 98 kts 292°
2026-05-06 17:42 38.95597 -104.68388 14102 ft 113 kts 292°
2026-05-06 17:42 38.95847 -104.69424 14240 ft 131 kts 291°
2026-05-06 17:42 38.96128 -104.70616 14373 ft 147 kts 290°
2026-05-06 17:43 38.96438 -104.71952 14499 ft 161 kts 290°
2026-05-06 17:43 38.96766 -104.73380 14659 ft 171 kts 290°
2026-05-06 17:43 38.97108 -104.74869 14819 ft 178 kts 290°
2026-05-06 17:43 38.97462 -104.76417 14976 ft 184 kts 290°
2026-05-06 17:44 38.97826 -104.78009 15130 ft 188 kts 290°
2026-05-06 17:44 38.98201 -104.79646 15284 ft 192 kts 290°
2026-05-06 17:44 38.98579 -104.81300 15449 ft 194 kts 290°
2026-05-06 17:44 38.98960 -104.82966 15648 ft 194 kts 290°
2026-05-06 17:45 38.99342 -104.84638 15846 ft 193 kts 290°
2026-05-06 17:45 38.99717 -104.86278 15996 ft 195 kts 290°
2026-05-06 17:45 39.00111 -104.87991 16018 ft 202 kts 290°
2026-05-06 17:45 39.00512 -104.89739 16021 ft 208 kts 290°
2026-05-06 17:46 39.00927 -104.91557 16019 ft 213 kts 290°
2026-05-06 17:46 39.01347 -104.93401 16018 ft 216 kts 289°
2026-05-06 17:46 39.01771 -104.95278 16018 ft 219 kts 289°
2026-05-06 17:46 39.02198 -104.97160 16017 ft 221 kts 289°
2026-05-06 17:47 39.02636 -104.99084 16017 ft 222 kts 289°
2026-05-06 17:47 39.03061 -105.00980 16015 ft 224 kts 287°
2026-05-06 17:47 39.02895 -105.02986 16016 ft 234 kts 248°
2026-05-06 17:47 39.01885 -105.04673 16024 ft 240 kts 233°
2026-05-06 17:48 39.00778 -105.06279 16018 ft 241 kts 234°
2026-05-06 17:48 38.99696 -105.07916 16017 ft 241 kts 235°
2026-05-06 17:48 38.98624 -105.09561 16017 ft 241 kts 235°
2026-05-06 17:48 38.97549 -105.11214 16016 ft 241 kts 234°
2026-05-06 17:49 38.96465 -105.12884 16016 ft 241 kts 234°
2026-05-06 17:49 38.95403 -105.14522 16016 ft 241 kts 234°
2026-05-06 17:49 38.94321 -105.16186 16016 ft 241 kts 234°
2026-05-06 17:49 38.93248 -105.17839 16016 ft 241 kts 234°
2026-05-06 17:50 38.92206 -105.19450 16016 ft 241 kts 234°
2026-05-06 17:50 38.91658 -105.20301 16016 ft 241 kts 234°
2026-05-06 17:50 38.90602 -105.21950 16016 ft 241 kts 235°
2026-05-06 17:50 38.89543 -105.23634 16016 ft 241 kts 235°
2026-05-06 17:51 38.88478 -105.25309 16016 ft 241 kts 234°
2026-05-06 17:51 38.87420 -105.26953 16015 ft 241 kts 234°
2026-05-06 17:51 38.86330 -105.28632 16006 ft 242 kts 233°
2026-05-06 17:51 38.85248 -105.30290 15996 ft 242 kts 233°
2026-05-06 17:52 38.84166 -105.31945 15985 ft 243 kts 233°
2026-05-06 17:52 38.83091 -105.33592 15975 ft 243 kts 233°
2026-05-06 17:52 38.82011 -105.35246 15964 ft 243 kts 233°
2026-05-06 17:52 38.80918 -105.36918 15954 ft 243 kts 233°
2026-05-06 17:53 38.79842 -105.38564 15947 ft 243 kts 233°
2026-05-06 17:53 38.78754 -105.40228 15941 ft 243 kts 233°
2026-05-06 17:53 38.77685 -105.41890 15938 ft 242 kts 235°
2026-05-06 17:53 38.76622 -105.43584 15935 ft 242 kts 234°
2026-05-06 17:54 38.75561 -105.45244 15935 ft 242 kts 234°
2026-05-06 17:54 38.74475 -105.46921 15935 ft 242 kts 234°
2026-05-06 17:54 38.73400 -105.48571 15938 ft 243 kts 234°
2026-05-06 17:54 38.72317 -105.50217 15941 ft 244 kts 233°
2026-05-06 17:55 38.71219 -105.51865 15947 ft 244 kts 233°
2026-05-06 17:55 38.70108 -105.53520 15991 ft 243 kts 233°
2026-05-06 17:55 38.69008 -105.55163 16004 ft 243 kts 233°
2026-05-06 17:55 38.67910 -105.56816 16004 ft 244 kts 233°
2026-05-06 17:56 38.66801 -105.58491 15870 ft 249 kts 233°
2026-05-06 17:56 38.65677 -105.60191 15721 ft 252 kts 233°
2026-05-06 17:56 38.64544 -105.61902 15571 ft 255 kts 233°
2026-05-06 17:56 38.63390 -105.63644 15420 ft 256 kts 233°
2026-05-06 17:57 38.62241 -105.65377 15269 ft 258 kts 232°
2026-05-06 17:57 38.61070 -105.67141 15121 ft 259 kts 232°
2026-05-06 17:57 38.59906 -105.68896 14973 ft 260 kts 232°
2026-05-06 17:57 38.58738 -105.70655 14825 ft 260 kts 232°
2026-05-06 17:58 38.57568 -105.72414 14677 ft 261 kts 232°
2026-05-06 17:58 38.56395 -105.74178 14647 ft 256 kts 232°
2026-05-06 17:58 38.55266 -105.75873 14789 ft 247 kts 232°
2026-05-06 17:58 38.54163 -105.77525 14929 ft 239 kts 232°
2026-05-06 17:59 38.53093 -105.79133 14990 ft 237 kts 233°
2026-05-06 17:59 38.52061 -105.80769 14999 ft 237 kts 234°
2026-05-06 17:59 38.51013 -105.82391 14999 ft 238 kts 232°
2026-05-06 17:59 38.49912 -105.83972 15000 ft 238 kts 231°
2026-05-06 18:00 38.48789 -105.85519 14999 ft 238 kts 230°
2026-05-06 18:00 38.47652 -105.87073 14999 ft 237 kts 230°
2026-05-06 18:00 38.46540 -105.88613 15000 ft 236 kts 232°
2026-05-06 18:00 38.45461 -105.90192 15000 ft 236 kts 232°
2026-05-06 18:01 38.44379 -105.91784 15000 ft 236 kts 232°
2026-05-06 18:01 38.43319 -105.93349 15000 ft 236 kts 232°
2026-05-06 18:01 38.42246 -105.94933 14999 ft 235 kts 232°
2026-05-06 18:01 38.41142 -105.96442 14977 ft 235 kts 218°
2026-05-06 18:02 38.39570 -105.97043 15013 ft 238 kts 188°
2026-05-06 18:02 38.37929 -105.97192 15001 ft 238 kts 187°
2026-05-06 18:02 38.36294 -105.97320 14999 ft 237 kts 186°
2026-05-06 18:02 38.34648 -105.97446 14999 ft 236 kts 186°
2026-05-06 18:03 38.33003 -105.97571 14999 ft 236 kts 185°
2026-05-06 18:03 38.31429 -105.97026 14998 ft 240 kts 146°
2026-05-06 18:03 38.30456 -105.95351 15003 ft 242 kts 107°
2026-05-06 18:03 38.30477 -105.93259 15003 ft 239 kts 67°
2026-05-06 18:04 38.31479 -105.91653 15002 ft 232 kts 28°
2026-05-06 18:04 38.33004 -105.91220 15001 ft 225 kts 349°
2026-05-06 18:04 38.34368 -105.92066 15015 ft 221 kts 320°
2026-05-06 18:04 38.35525 -105.93406 15004 ft 224 kts 316°
2026-05-06 18:05 38.36690 -105.94693 15002 ft 225 kts 319°
2026-05-06 18:05 38.37910 -105.95989 15001 ft 227 kts 319°
2026-05-06 18:05 38.39119 -105.97272 15000 ft 227 kts 319°
2026-05-06 18:05 38.40349 -105.98525 14999 ft 228 kts 325°
2026-05-06 18:06 38.41779 -105.99427 15002 ft 230 kts 338°
2026-05-06 18:06 38.43298 -106.00015 14844 ft 224 kts 343°
2026-05-06 18:06 38.44790 -106.00471 14613 ft 221 kts 345°
2026-05-06 18:06 38.46302 -106.00899 14358 ft 220 kts 346°
2026-05-06 18:07 38.47778 -106.01305 14111 ft 218 kts 346°
2026-05-06 18:07 38.49226 -106.01699 14013 ft 211 kts 346°
2026-05-06 18:07 38.50671 -106.02092 13796 ft 211 kts 346°
2026-05-06 18:07 38.52099 -106.02481 13551 ft 213 kts 346°
2026-05-06 18:08 38.53540 -106.02872 13353 ft 201 kts 346°
2026-05-06 18:08 38.54817 -106.03217 13122 ft 179 kts 346°
2026-05-06 18:08 38.55982 -106.03534 12815 ft 168 kts 346°
2026-05-06 18:08 38.57097 -106.03835 12612 ft 155 kts 348°
2026-05-06 18:09 38.58131 -106.03750 12466 ft 148 kts
2026-05-06 18:09 38.59122 -106.03513 12260 ft 144 kts
2026-05-06 18:09 38.60106 -106.03314 12053 ft 141 kts
2026-05-06 18:09 38.61075 -106.03350 11848 ft 138 kts 350°
2026-05-06 18:10 38.62022 -106.03558 11648 ft 138 kts 345°
2026-05-06 18:10 38.62952 -106.03861 11448 ft 139 kts 341°
2026-05-06 18:10 38.63878 -106.04218 11251 ft 139 kts 339°
2026-05-06 18:10 38.64789 -106.04600 11099 ft 137 kts 338°
2026-05-06 18:11 38.65685 -106.04990 10952 ft 138 kts 338°
2026-05-06 18:11 38.66610 -106.05401 10808 ft 142 kts 338°
2026-05-06 18:11 38.67551 -106.05821 10664 ft 145 kts 338°
2026-05-06 18:11 38.68507 -106.06248 10518 ft 147 kts 338°
2026-05-06 18:12 38.69494 -106.06634 10330 ft 146 kts 340°
2026-05-06 18:12 38.70426 -106.07034 10191 ft 139 kts 336°
2026-05-06 18:12 38.71325 -106.07492 9977 ft 139 kts 336°
2026-05-06 18:12 38.72215 -106.07954 9768 ft 138 kts 336°
2026-05-06 18:13 38.73123 -106.08375 9564 ft 138 kts 338°
2026-05-06 18:13 38.74031 -106.08734 9367 ft 138 kts 342°
2026-05-06 18:13 38.74948 -106.09110 9162 ft 137 kts 337°
2026-05-06 18:13 38.75843 -106.09538 8965 ft 137 kts 338°
2026-05-06 18:14 38.76732 -106.09946 8759 ft 137 kts 339°
2026-05-06 18:14 38.77635 -106.10349 8553 ft 138 kts 339°
2026-05-06 18:14 38.78537 -106.10759 8364 ft 137 kts 338°
2026-05-06 18:14 38.79425 -106.11172 8174 ft 133 kts 340°
2026-05-06 18:15 38.80290 -106.11563 7974 ft 129 kts 341°
2026-05-06 18:15 38.80970 -106.11865 7943 ft 66 kts 342°
2026-05-06 18:15 38.81279 -106.12001 7943 ft 25 kts 344°
2026-05-06 18:15 38.81415 -106.12062 7943 ft 15 kts 335°
2026-05-06 18:16 38.81424 -106.12174 7943 ft 13 kts 309°
2026-05-06 18:16 38.81515 -106.12219 7943 ft 15 kts 341°
2026-05-06 18:16 38.81623 -106.12267 7943 ft 17 kts 340°
2026-05-06 18:16 38.81742 -106.12318 7943 ft 18 kts 340°
2026-05-06 18:17 38.81867 -106.12372 7943 ft 19 kts 340°
2026-05-06 18:17 38.81998 -106.12431 7943 ft 20 kts 341°
2026-05-06 18:17 38.82129 -106.12492 7943 ft 18 kts 342°
2026-05-06 18:17 38.82224 -106.12549 7943 ft 7 kts 275°
2026-05-06 18:18 38.82215 -106.12611 7943 ft 5 kts 314°
2026-05-06 18:18 38.82249 -106.12626 7943 ft 2 kts 342°
2026-05-06 18:18 38.82267 -106.12637 7943 ft 3 kts 326°
2026-05-06 18:18 38.82307 -106.12661 7943 ft 6 kts 342°
2026-05-06 18:19 38.82318 -106.12669 7944 ft 0 kts 281°
2026-05-06 18:19 38.82315 -106.12676 7944 ft 1 kts 244°
2026-05-06 18:19 38.82313 -106.12683 7944 ft 0 kts 252°
2026-05-06 18:20 38.82313 -106.12682 7944 ft 0 kts 251°
2026-05-06 18:20 38.82314 -106.12680 7944 ft 0 kts 249°
2026-05-06 18:21 38.82315 -106.12677 7944 ft 0 kts 247°
2026-05-06 18:21 38.82315 -106.12675 7944 ft 0 kts 245°
2026-05-06 18:21 38.82317 -106.12672 7944 ft 0 kts 244°
2026-05-06 18:21 38.82317 -106.12669 7944 ft 0 kts 243°